Regional Weather Roundup
Issued by NWS

Home | Current Version | Previous Version | Text Only | Print | Product List | Glossary On
Versions: 1 2 3 4 5 6 7 8 9 10 11 12 13 14 15 16 17 18 19 20 21 22 23 24 25 26 27 28 29 30 31 32 33 34 35 36 37 38 39 40 41 42 43 44 45 46 47 48 49 50
000
ASUS46 KSTO 280115
RWRCA

NORTHERN AND CENTRAL CA REGIONAL WEATHER ROUNDUP
NATIONAL WEATHER SERVICE SACRAMENTO CA
600 PM PDT MON MAR 27 2017

NOTE: FAIR INDICATES FEW OR NO CLOUDS BELOW 12,000 FEET WITH NO
SIGNIFICANT WEATHER AND/OR OBSTRUCTIONS TO VISIBILITY.

CAZ001-003-280200-
NORTHWEST AREA

CITY           SKY/WX    TMP DP  RH WIND       PRES   REMARKS
CRESCENT CITY  CLOUDY    52  41  66 N7        30.39R
UKIAH          SUNNY     57  41  55 W10G21    30.24R
$$

CAZ006-505>513-280200-
BAY AREA

CITY           SKY/WX    TMP DP  RH WIND       PRES   REMARKS
SANTA ROSA     MOSUNNY   62  43  49 NW10      30.18F
SAN RAFAEL     N/A       60  MM  MM MISG
NAPA           PTSUNNY   63  49  60 W16       30.18S
CONCORD        SUNNY     63  46  54 W14       30.19F
OAKLAND CITY   N/A      MM  MM  MM MISG
OAKLAND        MOSUNNY   63  49  60 W16       30.21S
SAN FRAN CITY  N/A       58  MM  62 MISG
SAN FRAN ARPT  MOSUNNY   57  45  64 W26G35    30.22S
LIVERMORE      MOSUNNY   63  42  46 NW8       30.18S
HAYWARD        SUNNY     61  45  55 W18       30.20S
REDWOOD CITY   N/A       59  MM  62 MISG
MOFFETT ARPT   SUNNY     61  45  55 NW10G20   30.21S
SAN JOSE ARPT  MOSUNNY   61  44  53 NW15      30.20S
$$
CAZ034-037-514>518-280200-
CENTRAL COAST

CITY           SKY/WX    TMP DP  RH WIND       PRES   REMARKS
WATSONVILLE    SUNNY     64  42  44 N7        30.19S
SALINAS        SUNNY     60  47  61 W16G25    30.18S
MONTEREY       SUNNY     56  48  74 W18G31    30.21S
SAN LUIS OBISP MOSUNNY   61  48  62 NW12      30.10F
SANTA MARIA    MOSUNNY   57  49  74 NW26G35   30.07F
$$
CAZ015-016-280200-
NORTHERN SACRAMENTO VALLEY

CITY           SKY/WX    TMP DP  RH WIND       PRES   REMARKS
REDDING        SUNNY     65  35  33 CALM      30.18F
RED BLUFF      SUNNY     65  37  35 NW7       30.20F
OROVILLE       SUNNY     64  38  38 NW13G18   30.18S
$$
CAZ016>018-280200-
SOUTHERN SACRAMENTO VALLEY

CITY           SKY/WX    TMP DP  RH WIND       PRES   REMARKS
AUBURN         MOSUNNY   57  39  51 W7        30.19R
BEALE AFB      SUNNY     64  38  38 N13       30.16S
LINCOLN        FAIR      63  36  36 NW13G18   30.17S
MARYSVILLE     SUNNY     64  37  36 NW13      30.18S
SAC INTL ARPT  SUNNY     63  41  44 N14       30.18S
MATHER AIRPORT MOSUNNY   63  39  42 NW15G25   30.18F
DOWNTOWN SAC   N/A       65  MM  MM MISG
SAC EXEC ARPT  SUNNY     64  41  42 N13G18    30.18F
VACAVILLE      SUNNY     66  43  43 NE7       30.20S
$$
CAZ019>021-280200-
SAN JOAQUIN VALLEY

CITY           SKY/WX    TMP DP  RH WIND       PRES   REMARKS
STOCKTON       SUNNY     65  39  38 N18G26    30.16F
MODESTO        MOSUNNY   64  39  39 NW17G26   30.15S
MERCED         SUNNY     63  38  39 NW23G30   30.12S
LEMOORE        MOSUNNY   64  35  34 NW23G37   30.11R
FRESNO         MOSUNNY   63  43  48 NW20G30   30.10R
HANFORD        SUNNY     64  42  44 NW18      30.10S
PORTERVILLE    SUNNY     62  44  51 NW13      30.10
BAKERSFIELD    MOSUNNY   65  40  39 N15G24    30.09S
$$
CAZ011-012-071-280200-
NORTHERN MOUNTAINS

CITY           SKY/WX    TMP DP  RH WIND       PRES   REMARKS
YREKA          PTSUNNY   52  35  52 N9        30.25R
MOUNT SHASTA   MOSUNNY   50  26  39 VRB7      30.20
ALTURAS        MOSUNNY   46  22  38 NW13      30.19S
$$
CAZ011-012-071-280200-
SIERRA NEVADA MTNS

CITY           SKY/WX    TMP DP  RH WIND       PRES   REMARKS
BLUE CANYON    SUNNY     39  33  79 NW5       30.18R
TRUCKEE        PTSUNNY   39  25  56 NW9       30.17  WCI  33
TAHOE VLY ARPT MOSUNNY   38  24  57 N6        30.15R WCI  33
MAMMOTH LAKES  FAIR      41  17  37 N21       30.09R
$$




USA.gov is the U.S. government's official web portal to all federal, state and local government web resources and services.